User: anonymous   Login
Location: Quebec
(46.8000°N, 71.2500°W)
Time: 01:08:26
(UTC-04:00)
Language:

CZ-4B R/B - Orbit

View from above orbital plane
View from above orbital plane
View from above satellite
View from above satellite

Ground track
Ground track

The orbit data is extracted from the following two-line orbital elements,

1 29093U 06015B   16239.86249550  .00002467  00000-0  65097-4 0  9995
2 29093  97.4858 338.5027 0066877 294.9802  64.4506 15.37279985572276
Epoch (UTC): 26 August 2016 20:41:59
Eccentricity: 0.0066877
inclination: 97.4858°
perigee height: 408 km
apogee height: 500 km
right ascension of ascending node: 338.5027°
argument of perigee: 294.9802°
revolutions per day: 15.37279985
mean anomaly at epoch: 64.4506°
orbit number at epoch: 57227

The dashed part of the orbit path shows where the satellite is in the earth's shadow,  

DLR